sat.trackr.live / text

‹ back to catalog

ONEWEB-0318

NORAD 49104 · 2021-075AF

PAYLOAD ACTIVE UNKNOWN

§ Identity

Operator
Country
UK
Launch date
2021-08-21
Launch site
TYMSC
Launch vehicle
Mass (kg)
RCS (m²)

Purposes: comms

External: N2YO · Heavens-Above · Gunter

§ Orbital elements

Epoch: 2026-09-15T21:41:26.395872Z

Period
109.20 min
Inclination
87.9169°
Eccentricity
0.0001994
Mean motion
13.18687809 rev/d
Perigee alt
1,188.2 km
Apogee alt
1,191.2 km
Semi-major
7,567.9 km
B*
4.5033e-5
RAAN
317.4353°
Arg perigee
102.2049°
Mean anomaly
257.9307°
Rev number
24,912

§ Raw data

ONEWEB-03181 49104U 21075AF  26258.90377773  .00000031  00000+0  45033-4 0  99912 49104  87.9169 317.4353 0001994 102.2049 257.9307 13.18687809249129

JSON: /api/v1/satellites/49104 · /tle

For live sub-satellite position, see the globe view (requires WebGL).

§ Visibility from observer

Set your observer location to see the next 7 days of passes ≥ 10°. The values pass through the URL so the page stays shareable.

No JS? Fill the form by hand. The geolocation button needs JavaScript.